Wind_Speed
84 83 83 82 81 80 80 80 78 77 77 76 75 73 73 73 73 74 74 75 76 76 76 75 74 73 71 69 67 66 65 64 64 63 62 62 61 61 61 61 61 62 62 63 63 63 63 63 63 63 62 62 62 63 63 64 64 65 65 65 66 66 66 67 67 66 66 65 65 65 66 67 68 70 71 73 75 78 81 84 86 89 90 91 92 94
82 81 80 79 78 78 78 78 77 76 75 74 73 73 72 73 74 74 74 75 74 74 73 72 71 69 67 66 64 63 62 61 61 60 60 59 59 59 59 59 59 60 61 61 62 62 63 62 62 62 61 61 61 62 62 62 63 64 64 65 65 66 66 66 66 65 65 65 65 66 67 68 69 70 70 72 73 75 78 81 84 87 89 91 92 93
79 79 79 78 77 76 76 76 75 74 73 73 72 73 73 74 75 75 74 74 72 71 69 68 67 65 64 62 61 59 59 58 58 57 57 57 56 56 57 57 57 58 59 60 60 61 61 61 61 61 61 60 60 60 61 61 62 62 63 64 65 65 65 65 65 65 65 65 66 67 68 69 69 70 70 71 72 73 75 78 81 84 87 90 91 92
77 77 77 77 76 75 75 74 74 73 73 73 73 74 74 75 75 75 73 72 69 67 65 64 63 62 60 59 58 57 56 56 55 55 55 55 54 54 55 55 56 56 57 58 59 60 60 60 60 60 60 59 59 59 59 60 60 61 62 62 63 64 64 64 64 65 65 66 67 68 68 69 69 70 70 71 71 72 73 75 78 81 85 88 91 92
77 76 76 76 76 75 74 73 73 73 73 74 75 75 75 75 74 73 71 69 66 63 62 60 59 58 57 56 55 54 53 53 53 53 53 52 53 53 53 54 54 55 56 57 58 58 59 59 59 59 59 58 58 58 58 58 59 59 60 60 61 62 62 63 63 64 65 66 67 68 68 68 69 69 70 70 71 71 72 73 76 79 82 86 89 92
76 76 75 75 75 74 74 74 73 74 75 76 76 75 74 73 72 70 68 65 62 60 58 57 56 55 55 54 53 53 52 51 51 51 51 51 51 52 52 53 53 54 55 56 56 57 57 57 57 57 57 57 57 57 57 57 57 57 58 58 59 59 60 61 62 63 64 65 66 67 67 68 68 69 70 70 71 71 72 73 74 76 79 83 87 90
76 75 75 74 74 74 74 74 75 76 77 77 76 74 72 70 68 67 64 62 60 58 56 55 54 53 52 52 52 51 51 51 50 50 50 50 51 51 52 52 53 53 54 54 55 55 55 55 55 55 55 55 55 55 55 56 56 56 56 56 56 57 58 59 60 62 63 64 65 66 67 67 68 68 69 69 70 71 72 72 73 75 77 80 83 87
76 75 74 74 74 75 75 76 76 76 76 75 73 71 69 67 65 63 61 59 58 56 55 54 52 51 51 51 51 51 51 51 50 50 50 50 51 51 51 52 52 52 53 53 53 54 54 54 53 53 53 53 53 54 54 55 55 55 55 55 55 56 57 58 59 61 62 63 64 65 66 66 67 67 68 68 69 70 71 72 73 74 76 78 81 84
75 75 74 74 74 75 77 77 76 75 73 72 69 67 65 63 62 60 59 57 56 55 54 53 52 51 50 50 50 51 51 51 51 51 51 50 51 51 51 51 51 51 51 52 52 52 52 52 52 52 51 51 52 52 53 54 54 54 54 54 55 55 56 57 59 60 61 62 63 64 65 65 66 66 67 68 68 70 71 72 73 74 75 77 79 81
75 75 75 75 75 76 77 76 75 73 70 67 65 63 61 60 59 58 57 55 54 53 53 53 52 51 50 50 50 50 51 51 51 50 50 50 50 50 50 50 50 50 51 51 51 51 52 51 51 51 50 50 50 51 51 52 53 53 54 54 54 55 56 57 58 60 61 62 62 63 63 64 65 66 67 68 69 69 71 72 73 74 75 76 78 79
75 75 76 76 76 76 76 74 72 69 66 64 62 60 59 58 58 57 57 55 53 52 51 51 51 51 50 50 49 50 50 50 50 50 49 49 49 49 49 49 49 50 50 50 50 50 50 50 50 49 49 48 48 49 49 50 51 51 52 52 53 54 55 56 57 59 60 60 61 62 63 64 65 66 67 68 69 70 71 71 73 74 75 76 77 78
76 76 77 77 77 76 74 71 68 65 63 61 60 59 58 57 57 57 56 55 53 52 51 50 49 49 49 49 49 49 49 49 48 48 47 47 47 48 48 48 48 48 48 48 48 48 48 48 48 47 46 46 46 46 46 47 47 48 49 49 50 51 52 54 55 57 58 59 60 61 62 63 64 65 66 67 69 70 71 72 73 74 75 76 77 77
77 77 78 77 76 73 70 67 64 62 60 59 59 59 58 57 56 56 56 55 54 52 51 49 48 46 46 46 46 47 47 47 46 45 45 44 44 45 45 45 45 45 45 45 45 45 45 45 45 44 43 43 43 43 43 43 44 44 45 46 47 48 49 50 52 54 55 57 58 59 61 62 63 64 65 67 68 69 71 72 73 74 75 76 76 76
78 78 77 75 72 69 65 63 61 60 59 58 59 59 58 57 57 56 55 54 52 51 49 47 45 43 42 41 42 43 43 43 43 42 41 40 41 42 42 42 42 41 41 41 41 41 41 41 41 40 40 40 40 40 40 40 41 41 42 43 43 45 46 48 49 51 53 54 56 57 59 60 61 62 64 65 67 68 70 71 72 73 74 74 75 75
78 77 75 71 68 64 61 60 59 59 58 58 58 58 58 57 56 55 54 52 50 48 46 44 41 39 36 36 37 38 39 40 39 38 37 36 37 38 39 39 38 38 37 37 37 37 37 37 37 37 37 37 37 37 37 37 38 38 39 39 40 42 43 45 47 49 50 52 53 54 56 57 58 59 61 63 64 66 68 69 71 72 72 73 73 73
76 74 71 67 64 61 59 58 58 58 58 58 58 57 57 55 54 52 50 48 46 44 41 39 36 33 30 30 31 34 35 36 35 34 33 32 33 34 36 36 35 34 34 34 34 34 34 34 34 34 34 34 34 34 34 34 34 35 35 36 37 38 39 41 43 45 47 48 50 51 52 53 55 56 58 59 61 63 65 67 68 69 70 71 71 72
72 69 66 63 61 59 57 57 57 57 57 57 56 55 54 52 50 48 46 43 41 39 36 34 31 28 25 25 26 29 32 33 32 31 30 29 29 31 32 33 32 31 31 31 31 31 31 31 31 31 31 31 30 30 30 30 30 30 30 30 31 32 33 35 37 39 42 44 46 47 49 50 51 52 54 55 57 59 61 63 65 67 68 69 70 71
67 64 61 60 59 58 57 56 56 56 56 55 53 51 49 47 45 42 40 38 36 34 31 29 27 25 23 22 23 26 30 31 30 28 27 26 26 28 29 30 30 29 28 28 29 29 29 29 28 28 28 27 27 27 26 25 25 24 24 24 24 25 26 28 30 32 35 38 40 43 45 46 47 49 50 52 53 55 58 60 62 64 66 67 68 69
63 60 58 58 57 57 56 55 55 54 53 51 49 46 44 41 39 36 35 33 31 29 28 25 24 23 22 21 22 25 28 29 29 27 25 25 25 26 27 28 28 27 26 26 26 26 26 26 26 25 25 25 24 23 22 21 20 20 21 22 23 24 25 26 26 27 29 31 34 37 40 42 44 45 47 48 50 52 54 57 59 61 63 65 66 67
59 57 56 56 56 56 55 53 52 50 48 46 44 41 39 36 33 31 30 28 27 26 25 24 22 21 21 21 22 24 27 28 28 27 26 25 25 26 27 27 27 26 25 24 24 24 24 24 23 23 22 21 20 19 17 17 18 20 22 24 27 29 30 31 31 30 29 29 30 32 35 37 40 42 44 46 48 50 52 54 56 58 60 62 64 65
57 55 55 55 55 54 52 49 47 45 43 41 39 37 35 33 30 28 27 26 25 24 24 23 23 22 23 23 24 25 27 28 28 27 26 25 25 26 27 27 26 25 24 23 23 23 23 22 21 20 19 18 17 16 16 16 17 19 21 25 28 30 33 34 35 35 33 32 30 30 31 33 36 39 41 44 46 48 50 51 53 55 57 59 61 63
55 54 53 53 52 50 48 45 42 40 38 37 36 34 33 31 29 28 27 26 25 25 24 24 24 24 25 25 25 26 27 29 29 29 27 25 25 26 27 27 26 25 24 23 23 22 21 20 19 19 18 17 16 16 16 16 17 19 22 25 27 29 31 32 34 36 36 34 31 29 29 30 33 36 38 41 43 45 47 48 49 52 54 57 59 61
53 52 51 49 47 45 43 40 38 36 35 35 34 33 33 32 30 29 28 27 26 26 25 24 24 24 25 25 26 27 28 29 30 30 29 27 26 26 26 27 26 25 24 23 23 22 21 20 19 19 18 17 17 17 17 17 18 20 23 25 27 27 28 30 33 35 35 34 31 29 27 28 30 32 35 37 40 41 42 44 46 49 52 54 57 60
51 49 48 45 43 40 38 37 36 35 35 34 34 34 33 33 32 31 30 29 28 27 26 25 23 23 23 24 25 27 28 29 31 31 31 29 28 27 26 27 26 25 23 23 23 22 21 20 19 19 19 18 18 19 19 19 20 21 22 24 24 25 26 29 32 34 34 32 30 27 25 26 27 29 31 33 35 37 39 41 44 46 50 53 56 59
47 45 43 41 38 37 36 36 36 36 36 36 36 35 35 34 33 32 31 30 30 28 27 25 23 22 22 23 24 25 27 29 30 31 31 29 28 26 26 26 26 25 23 22 22 22 21 20 20 20 20 19 19 20 20 20 20 20 19 19 20 22 25 29 31 32 32 30 27 24 23 23 24 25 27 29 31 33 36 39 42 45 49 52 55 58
43 41 39 37 36 35 36 36 37 38 39 39 39 38 37 36 34 33 33 32 31 30 27 25 23 22 22 22 23 24 26 28 29 30 29 28 26 25 25 25 26 25 23 22 22 22 21 20 20 20 20 19 19 18 18 18 17 16 16 18 21 24 28 31 32 31 29 27 24 22 20 20 20 21 23 25 27 31 34 38 41 45 48 52 55 57
38 37 35 35 35 36 37 38 40 41 42 42 42 41 40 38 37 35 34 34 32 30 28 26 24 23 22 22 23 24 26 27 28 28 28 27 26 25 25 26 26 26 25 23 22 22 21 20 19 18 18 17 16 15 14 14 14 15 18 21 24 28 31 32 31 29 27 24 21 19 17 17 17 18 20 22 25 29 33 37 41 44 48 51 54 56
34 34 34 35 36 37 39 41 42 43 44 44 44 44 43 41 40 38 37 34 33 31 29 28 26 25 23 23 23 24 25 27 28 28 27 27 26 26 26 27 28 28 27 25 22 21 20 19 17 16 14 12 11 11 11 13 15 18 20 24 27 30 31 30 28 26 24 21 18 16 15 14 15 16 18 21 25 29 33 37 41 45 48 52 54 55
32 33 34 36 38 40 41 43 44 44 45 45 45 45 44 42 41 40 37 35 33 32 31 29 27 26 25 24 24 24 25 27 28 28 27 27 27 27 27 28 28 28 27 25 22 19 18 16 14 11 9 8 8 9 11 14 16 19 22 26 28 29 28 27 25 23 20 17 15 13 12 12 13 15 18 21 25 29 33 38 42 46 49 52 53 54
31 33 35 37 39 41 43 43 44 45 45 45 45 44 43 42 40 39 37 35 34 33 31 29 28 27 26 26 25 24 25 26 27 28 27 28 27 27 27 27 27 27 26 24 20 16 14 11 9 7 6 6 7 10 12 15 18 21 24 26 27 27 26 24 21 18 15 12 11 10 10 11 13 15 18 21 25 30 34 39 43 46 49 51 52 52
31 34 36 38 40 41 42 43 43 43 43 42 42 41 40 39 37 36 35 34 33 32 30 28 27 27 27 27 26 24 23 24 25 27 27 27 27 26 26 25 25 24 23 21 16 12 8 6 6 5 5 6 9 11 14 17 20 22 24 24 25 24 22 18 15 12 10 8 8 8 9 10 12 14 17 21 25 30 34 39 42 45 48 49 50 49
33 35 37 39 40 40 40 40 40 39 39 38 37 37 36 35 34 33 32 32 31 30 28 27 26 26 26 26 25 23 22 22 24 25 26 27 26 25 24 24 23 21 19 16 12 7 2 3 4 5 6 8 10 13 16 18 20 21 22 22 22 19 15 12 8 6 5 5 5 6 8 9 11 14 17 21 25 29 34 38 41 43 45 46 46 46
35 37 38 38 38 37 37 36 35 35 34 33 33 32 31 30 30 29 29 28 28 27 26 25 25 25 24 24 23 22 21 22 24 25 26 25 25 23 22 20 18 16 14 12 8 4 1 1 2 5 7 9 11 14 16 18 19 20 20 19 16 12 9 6 5 3 2 1 2 4 6 8 10 13 16 20 24 28 32 36 39 40 42 42 42 42
36 36 36 35 34 33 33 32 31 31 30 29 29 28 27 27 26 26 26 26 25 25 25 24 24 24 23 22 21 20 21 22 24 24 24 23 22 21 19 16 14 12 12 10 6 3 3 2 1 3 6 8 11 14 17 18 18 18 18 14 10 6 5 5 5 5 4 3 3 4 6 8 10 13 16 19 23 27 31 34 36 38 39 40 40 40
34 33 32 31 30 30 29 28 28 28 27 26 26 25 25 24 24 24 24 24 24 24 24 24 24 24 23 22 20 20 20 21 22 23 22 21 19 18 16 14 12 12 13 12 9 5 2 2 1 2 5 8 12 15 17 17 17 16 13 9 6 5 6 8 9 10 10 9 8 7 7 8 10 13 16 19 22 26 30 32 35 36 37 38 39 39
30 29 28 28 27 27 26 26 25 25 24 24 23 23 23 23 23 23 23 23 23 24 24 24 24 24 23 22 21 20 20 20 20 20 20 19 18 17 15 14 13 13 14 14 12 9 6 4 4 4 6 9 13 15 15 15 14 12 8 5 4 7 11 14 16 17 17 16 15 13 11 10 10 12 15 19 22 26 29 32 34 35 37 37 38 39
27 26 26 25 25 24 24 23 23 22 22 22 22 22 22 22 22 22 22 22 23 23 24 24 24 23 22 21 21 20 19 19 19 19 19 18 17 17 16 15 15 14 15 15 14 13 12 10 8 6 6 9 12 14 13 14 12 8 4 4 8 13 18 20 22 22 22 21 20 18 15 13 11 12 15 19 22 26 29 32 34 35 36 37 38 39
25 25 24 23 23 22 21 21 21 21 21 21 21 21 21 22 22 22 22 22 23 23 23 23 22 22 21 21 20 20 19 19 19 19 18 18 18 18 17 17 16 16 15 15 16 15 15 14 12 9 6 8 10 12 12 12 9 4 3 8 13 19 22 23 23 22 21 20 18 17 15 14 13 13 16 19 22 26 29 32 34 36 37 38 39 39
23 23 22 22 21 20 20 20 20 20 20 20 21 21 21 22 22 22 22 22 22 22 22 22 21 21 21 20 19 19 19 19 19 19 19 19 19 19 18 17 16 16 15 15 14 14 14 14 12 9 6 7 9 11 11 10 6 3 6 12 18 22 23 22 21 19 17 15 14 14 14 14 14 15 16 19 22 25 28 31 34 36 38 39 39 40
21 21 21 20 20 20 19 19 19 19 20 20 20 20 21 21 21 21 21 21 21 21 21 21 21 21 20 19 19 18 18 18 18 18 18 18 19 19 18 17 17 16 15 14 12 11 10 10 9 6 5 7 9 10 9 8 4 4 9 17 22 23 21 19 17 15 13 11 10 12 13 15 16 17 18 20 23 25 28 31 34 36 37 39 39 40
20 20 19 19 19 19 19 20 20 20 20 20 20 20 20 20 20 20 20 20 20 20 20 20 21 21 20 20 19 18 18 18 18 17 17 17 17 17 17 16 16 15 15 14 12 10 8 7 5 4 4 6 7 8 7 5 3 6 13 20 23 22 19 16 14 11 8 5 6 8 10 13 15 16 18 19 21 24 26 29 32 34 35 36 38 39
19 19 18 18 19 19 20 20 20 21 20 20 20 20 19 19 19 19 19 19 19 19 20 20 21 21 21 21 20 19 19 18 18 17 16 16 16 15 15 15 14 13 12 11 10 9 8 7 6 6 6 6 6 5 4 3 4 8 14 20 22 20 17 15 12 9 5 1 2 4 6 9 11 12 14 15 16 19 21 25 28 30 33 35 36 38
18 18 18 18 19 19 20 20 21 21 20 20 20 19 19 18 18 18 18 18 19 19 19 20 21 21 22 22 22 21 20 19 18 17 16 15 14 14 14 14 13 11 10 9 9 9 9 9 8 8 7 6 4 3 3 4 6 9 15 19 21 20 17 14 11 8 3 2 3 2 4 6 7 9 10 11 12 14 17 20 23 26 30 32 35 37
18 18 18 19 19 19 20 20 21 20 20 19 19 18 18 18 18 18 18 18 19 19 20 20 21 22 22 23 22 22 21 20 19 17 15 14 13 12 13 14 13 11 10 8 8 9 10 10 10 8 6 5 3 3 4 5 7 11 15 19 20 18 16 13 10 6 2 1 1 3 5 6 7 7 8 10 11 13 15 17 19 22 26 29 33 35
17 18 18 19 19 20 20 20 20 20 19 18 18 17 17 17 17 18 18 19 19 20 20 21 21 22 22 23 23 22 22 21 20 18 16 14 12 11 11 13 14 13 11 9 8 9 11 11 10 8 6 4 4 5 6 8 9 12 16 18 18 16 14 11 8 4 2 2 5 7 8 8 7 7 8 10 11 13 14 15 17 19 21 25 28 32
17 18 18 19 19 20 20 20 20 19 19 17 16 16 16 16 17 18 18 19 19 20 20 21 21 22 22 22 22 22 22 21 20 19 17 14 12 11 10 11 13 13 12 10 8 9 10 10 9 7 5 4 5 6 8 9 10 12 14 16 17 15 13 10 7 6 6 7 9 10 9 8 7 7 8 10 11 12 13 14 15 16 18 20 23 27
17 18 18 19 19 19 20 20 19 19 18 17 16 15 15 16 16 17 18 18 18 19 20 21 22 22 22 22 22 22 21 21 20 19 17 15 13 11 9 9 11 12 13 11 9 9 10 9 8 6 5 5 6 8 9 10 10 11 13 14 15 15 13 11 10 9 10 11 12 10 9 7 7 7 8 9 10 11 12 13 14 15 17 18 20 23
17 18 18 19 19 19 19 19 19 18 18 17 16 16 16 16 16 17 17 17 18 19 20 21 21 22 22 22 22 22 22 21 21 20 18 16 14 11 9 8 9 11 12 11 10 10 9 8 7 6 6 6 7 9 10 10 10 10 11 12 12 12 12 11 11 12 13 14 13 11 9 8 7 7 7 8 10 11 12 13 14 15 17 18 19 21
18 18 18 18 19 19 19 18 18 18 17 17 17 17 17 17 17 16 16 16 17 18 19 20 20 21 21 21 21 22 22 22 21 20 19 17 14 11 9 8 8 9 11 12 11 10 8 7 6 6 7 7 8 9 10 10 10 10 10 10 10 10 11 12 13 14 14 14 13 12 11 10 9 8 8 9 10 11 13 14 15 16 17 18 19 20
18 18 18 18 18 18 18 18 18 18 17 17 17 17 17 17 17 16 16 16 17 18 19 19 19 19 20 20 21 22 22 23 22 21 19 17 15 12 10 9 8 9 10 11 11 9 7 6 6 7 8 9 9 10 10 10 10 10 11 11 11 11 12 13 13 14 14 14 13 13 12 11 10 10 10 10 11 12 13 14 15 16 17 18 19 20
18 18 18 18 18 18 18 18 18 18 18 18 17 17 17 17 16 16 15 16 17 18 18 18 18 18 18 19 20 22 23 23 23 22 20 17 15 13 11 10 10 10 10 10 9 8 7 7 7 8 9 9 10 11 11 11 11 11 11 11 12 13 13 13 14 14 14 14 13 13 13 12 12 11 11 11 12 13 14 15 16 17 18 19 19 20
Wind_Direction
301 301 300 300 300 300 300 300 300 300 300 299 300 300 299 299 298 298 298 298 298 297 297 296 295 294 292 291 290 289 288 287 286 286 285 284 283 283 282 281 280 278 277 276 275 274 273 272 271 269 268 267 266 266 265 264 263 262 262 261 260 259 258 257 256 255 254 252 251 249 247 245 244 243 241 240 239 238 237 236 234 234 233 233 232 232
302 301 301 301 301 301 301 301 301 301 301 301 301 300 300 299 299 298 298 298 297 297 296 295 293 292 291 290 289 289 288 287 287 286 285 284 284 283 282 280 279 278 277 276 275 274 273 272 271 270 269 267 266 265 264 264 263 262 261 261 260 259 258 257 256 255 254 252 251 249 247 245 243 242 241 240 239 238 237 236 234 233 233 233 232 232
303 302 302 302 302 302 302 302 302 302 302 302 302 301 301 300 300 299 299 298 297 296 295 293 292 291 291 290 290 289 288 288 287 286 286 285 284 282 281 280 279 278 276 275 275 274 273 272 271 270 269 268 267 266 264 263 262 262 261 260 259 259 258 257 256 255 254 252 250 248 246 244 243 242 241 240 239 238 237 236 234 233 232 232 232 231
303 303 303 303 303 303 303 303 303 303 303 303 303 302 302 301 300 300 299 298 297 296 294 293 292 291 291 291 290 290 289 288 288 287 286 285 283 282 281 279 278 277 276 275 274 273 273 272 272 271 270 269 268 266 265 264 262 261 260 260 259 258 258 257 256 255 253 252 250 248 247 245 244 242 241 240 239 238 237 236 235 233 232 231 231 231
304 304 304 304 304 304 304 304 304 304 304 304 304 303 303 302 301 300 299 298 297 296 294 293 293 293 293 292 292 291 290 289 288 287 285 284 283 281 280 278 277 276 275 274 274 273 273 273 272 272 271 270 269 268 266 265 263 262 260 259 258 258 257 257 256 254 253 252 251 249 248 246 245 243 242 240 239 238 237 237 235 234 232 231 231 230
305 305 305 305 305 305 306 306 306 306 306 305 304 304 303 302 301 300 299 298 297 296 295 295 295 295 294 294 293 292 291 289 288 287 285 284 282 281 279 278 277 276 275 275 274 274 273 273 273 272 272 271 270 269 268 266 264 263 261 260 258 258 257 256 255 254 253 252 251 250 249 247 245 244 242 241 239 238 238 237 236 235 233 232 231 230
306 306 306 307 307 307 307 307 307 307 306 306 305 304 302 301 301 300 300 299 299 298 297 297 297 297 296 296 295 293 292 290 288 287 285 284 282 281 280 279 278 277 276 276 275 275 274 273 273 272 272 271 270 269 268 267 266 264 262 261 259 258 256 255 254 253 253 252 251 250 249 248 246 244 243 241 240 239 238 237 236 235 234 233 232 230
307 307 307 308 308 307 307 307 307 307 306 305 304 303 302 302 301 300 300 300 300 300 300 299 299 298 298 297 296 294 292 290 289 287 285 284 283 282 281 280 279 278 278 277 276 276 275 274 273 272 271 271 270 269 268 267 266 265 263 261 260 258 257 255 254 253 252 251 251 250 249 248 247 246 244 242 241 239 238 237 236 235 234 233 232 231
307 308 308 308 308 308 308 307 307 307 306 305 304 304 303 302 302 301 301 301 302 302 302 301 300 299 298 297 296 295 293 291 289 288 286 285 284 283 282 281 280 280 279 278 277 277 276 275 274 273 272 271 270 269 268 267 266 265 264 262 260 259 257 256 254 253 252 251 251 250 249 249 248 247 245 243 242 240 238 236 235 234 234 233 232 231
308 308 308 308 308 308 308 308 308 307 306 305 304 304 303 303 303 302 302 302 302 302 302 302 301 300 299 298 296 294 292 291 289 288 287 286 285 284 283 282 282 281 280 279 278 278 277 276 275 274 273 272 271 270 268 267 266 265 264 262 261 260 258 257 255 254 253 252 251 250 249 248 247 246 245 244 242 241 239 237 235 234 233 233 232 231
308 308 309 309 309 309 309 309 308 307 307 306 305 304 304 304 304 303 303 303 303 303 302 302 301 301 300 298 295 293 292 290 289 288 287 287 286 286 285 284 283 282 281 280 280 279 279 278 277 276 275 274 273 271 270 268 267 266 264 263 262 260 259 258 256 255 254 253 251 250 249 248 246 245 244 243 242 241 239 237 236 234 233 232 231 230
309 309 310 310 310 310 310 309 308 308 307 306 306 305 305 305 305 305 305 305 304 304 303 302 301 301 300 298 295 293 291 290 289 289 288 288 288 287 286 285 284 283 282 281 281 281 280 279 279 278 277 276 274 272 271 269 268 266 265 264 262 261 260 259 258 257 255 254 252 251 249 247 246 244 243 242 241 240 239 237 235 234 232 231 230 229
310 310 311 311 311 311 310 309 309 308 308 307 307 307 306 306 306 306 306 306 306 305 304 303 302 301 299 297 295 294 292 291 290 290 290 290 290 288 287 285 284 283 283 282 282 281 280 280 280 279 278 277 275 273 271 270 269 267 266 265 263 262 261 260 258 257 256 255 253 251 250 248 246 245 243 242 240 239 238 237 235 233 232 230 229 228
311 311 311 311 311 311 310 310 309 309 309 308 308 308 308 308 308 308 307 307 307 306 305 304 302 301 300 298 296 294 293 293 293 293 294 294 292 290 288 286 285 284 283 282 281 281 280 280 280 279 278 277 276 274 273 271 270 269 267 266 265 263 262 260 259 258 256 255 254 252 251 249 248 246 244 242 240 238 237 236 235 233 231 230 228 227
311 312 311 311 311 311 311 310 310 309 309 309 309 309 309 309 309 309 309 308 308 307 305 304 303 302 301 299 298 296 295 295 296 297 298 297 295 293 290 288 286 285 284 283 282 281 280 280 280 279 279 278 277 276 275 273 272 270 269 267 266 264 263 262 260 259 258 257 255 254 252 251 249 247 244 242 240 238 236 235 234 233 231 229 227 226
311 311 311 311 311 311 311 310 310 310 310 310 309 310 310 311 311 311 310 310 309 308 307 306 305 305 303 302 300 299 298 299 301 302 303 302 299 295 292 290 288 287 285 284 283 282 282 281 281 280 280 280 279 278 277 276 275 273 272 270 268 267 266 264 263 262 261 259 258 256 254 252 250 247 245 242 240 238 236 234 233 231 230 228 226 224
311 311 311 311 311 311 311 311 311 310 310 311 311 312 312 313 313 313 313 312 311 311 310 309 309 308 307 306 304 303 303 304 306 308 309 308 304 299 294 292 290 289 287 286 285 284 283 283 282 282 282 281 281 280 279 279 278 276 275 274 272 271 270 269 268 266 264 263 261 258 255 253 250 247 245 242 240 237 235 233 231 230 228 226 224 223
311 312 312 311 311 311 311 312 312 312 312 312 313 314 315 316 316 316 316 315 315 314 314 313 313 312 312 311 309 308 307 309 311 314 315 315 311 305 298 295 293 291 290 288 286 285 284 284 284 283 283 282 282 281 281 280 280 280 281 280 280 279 278 277 275 274 271 268 265 261 258 254 250 247 244 242 239 236 234 232 230 228 226 224 222 221
312 312 312 312 311 311 312 313 313 314 314 315 316 317 318 319 320 320 320 320 319 318 317 317 316 315 315 316 315 313 311 312 315 318 321 323 320 312 305 300 297 295 292 290 288 286 285 285 284 283 283 282 283 283 284 287 290 294 297 297 297 295 294 292 290 288 285 280 274 268 262 256 251 247 244 241 238 235 233 230 228 226 223 221 220 218
312 312 312 312 312 312 313 314 315 316 317 318 319 321 323 324 325 325 325 324 323 322 321 320 318 317 316 317 317 315 313 314 316 320 323 326 324 318 311 305 301 298 295 292 289 287 286 285 284 283 284 283 283 283 286 291 297 300 301 301 302 302 302 303 303 301 299 294 287 278 268 260 253 247 243 239 236 234 231 228 226 223 221 219 217 216
312 312 312 312 312 313 315 316 317 318 319 321 322 325 327 328 329 330 329 328 327 326 324 322 319 317 315 316 316 315 314 314 316 318 321 323 323 320 314 309 305 301 297 293 289 287 286 285 285 285 284 282 278 277 278 280 281 282 282 283 286 291 296 301 303 304 303 301 296 287 275 264 255 248 243 239 235 232 229 225 223 220 218 216 214 213
312 312 312 313 313 315 316 318 320 321 322 324 326 328 330 331 332 332 332 331 330 329 327 324 320 317 315 315 314 314 313 314 315 316 317 319 319 318 314 310 306 303 299 295 291 289 288 287 287 285 283 279 275 273 272 271 269 266 266 270 275 282 290 296 299 300 301 302 300 292 281 269 258 250 244 239 235 231 227 223 219 217 215 213 211 209
312 312 313 313 315 316 318 320 322 323 324 326 327 329 331 332 332 332 332 331 331 330 329 325 322 318 315 314 313 313 313 313 314 315 315 315 315 314 311 308 306 303 300 297 294 292 291 290 288 286 282 276 272 270 269 267 264 261 262 266 273 281 289 294 296 297 299 301 299 293 282 271 260 252 245 240 235 230 225 220 216 214 212 209 208 206
311 312 313 315 316 318 320 321 323 324 325 326 327 329 330 331 332 332 331 330 330 329 328 326 323 319 316 314 314 314 314 313 313 313 313 314 314 313 311 308 306 305 302 299 297 295 293 291 289 286 282 277 272 268 266 263 261 259 260 265 272 282 290 294 296 298 299 300 298 291 281 270 260 252 245 239 233 228 222 217 213 210 208 206 204 203
312 313 314 316 318 319 321 322 323 324 324 325 326 327 329 330 330 330 330 329 328 328 327 327 325 323 319 316 316 316 315 314 312 312 313 315 318 318 315 312 310 309 306 302 298 295 294 292 290 287 284 280 275 270 267 264 262 263 266 274 284 293 298 301 302 302 301 299 295 288 279 268 259 250 243 236 229 223 217 212 209 206 205 203 202 201
312 314 315 317 318 319 320 321 322 322 323 323 324 325 327 327 328 328 328 327 327 327 327 327 326 324 322 320 319 317 316 314 312 312 314 319 324 326 323 320 318 316 313 307 301 297 294 293 291 288 286 282 278 274 270 269 271 277 286 296 303 307 308 308 307 305 301 296 291 284 274 264 254 245 237 230 223 216 211 207 204 202 201 200 199 199
313 314 316 317 318 319 320 320 321 321 322 322 323 323 324 325 325 326 326 325 325 325 326 326 326 325 324 323 321 319 316 313 312 313 316 322 327 329 327 324 323 321 319 314 307 301 298 296 293 289 286 281 276 273 273 278 287 296 303 306 308 309 309 307 305 301 296 290 284 277 267 257 247 238 229 221 214 209 205 202 200 199 198 198 198 198
313 315 316 317 318 319 319 320 320 320 320 320 321 321 322 322 323 323 324 324 324 324 325 326 325 325 325 324 322 320 317 313 311 313 318 322 325 325 323 321 320 319 318 316 311 306 302 299 296 291 284 278 274 275 283 294 302 306 308 309 309 308 306 303 299 294 289 284 277 269 259 248 238 228 219 212 207 202 199 197 196 196 196 196 196 197
314 315 316 317 318 318 319 319 319 319 319 318 318 319 320 320 320 321 322 322 322 323 324 325 325 325 325 325 323 320 316 312 312 315 319 321 322 321 319 315 314 313 313 313 312 308 303 299 295 289 280 277 282 292 301 307 311 312 312 311 310 307 303 298 294 289 285 279 271 260 247 236 226 218 211 205 201 198 196 195 194 194 194 195 195 196
314 315 316 317 317 317 317 317 317 316 316 316 316 317 318 319 319 320 321 321 322 323 324 325 326 326 325 324 322 319 315 312 313 317 320 321 321 320 317 312 310 309 309 309 310 308 300 293 286 281 282 292 304 310 314 316 316 316 315 313 309 304 299 296 292 287 282 274 262 247 233 223 215 209 204 200 197 195 194 193 193 193 193 193 194 195
315 315 315 315 315 315 315 315 315 315 315 315 316 317 318 320 320 321 321 321 322 324 325 326 327 327 326 324 323 321 317 314 316 319 321 322 322 321 317 313 310 309 308 310 312 310 297 277 269 279 300 314 320 321 321 321 321 320 317 311 306 302 299 296 292 286 277 264 247 231 218 210 205 202 199 196 194 193 193 192 192 192 192 193 194 195
315 315 315 315 315 315 315 315 316 316 317 318 319 320 322 322 323 323 324 324 325 326 327 328 329 328 327 326 325 324 322 320 320 321 322 323 324 323 321 318 316 314 314 316 319 321 300 243 252 280 306 318 323 325 326 327 326 322 315 309 306 305 303 300 295 287 273 252 229 212 202 198 196 195 195 194 193 192 192 192 192 192 193 193 194 196
316 316 316 316 317 317 318 319 320 322 323 324 325 326 327 327 328 328 329 329 329 329 330 331 331 330 330 329 329 328 326 326 324 324 324 325 327 328 328 327 327 328 330 332 337 351 72 149 265 291 305 317 325 330 333 333 328 321 314 311 311 312 312 315 316 315 303 256 197 183 182 184 186 189 191 192 192 192 192 192 193 193 194 195 196 198
319 319 320 321 322 324 325 327 328 329 330 331 332 332 333 333 333 334 334 334 333 333 333 333 333 333 333 334 334 332 330 328 327 326 327 329 332 335 337 340 345 353 359 1 7 35 89 89 4 311 312 323 333 339 340 335 326 319 316 317 321 329 342 357 10 22 37 62 105 140 158 168 177 183 188 191 192 193 194 194 195 195 196 197 198 200
323 324 325 328 330 331 333 334 336 337 337 338 338 338 338 338 338 338 338 338 337 336 336 336 337 338 338 339 338 335 332 331 329 330 332 335 338 341 344 350 1 12 19 20 23 33 66 63 25 343 330 333 340 344 342 333 324 321 323 328 341 7 29 42 51 57 64 73 86 108 131 153 168 178 185 190 193 195 196 197 198 198 199 200 200 201
328 330 333 335 337 339 340 341 342 343 344 344 343 343 343 343 342 342 342 341 340 340 340 340 341 342 344 344 343 341 339 337 336 337 339 342 344 345 347 351 358 6 13 14 14 11 3 355 352 349 344 341 344 345 340 330 326 328 337 353 27 49 61 66 69 71 73 76 81 89 104 126 150 169 181 188 193 197 199 200 201 201 202 202 202 202
335 337 339 342 343 345 347 348 349 349 349 349 348 347 347 346 346 346 345 345 345 345 344 345 346 348 350 351 350 349 347 346 345 345 346 346 348 349 349 351 353 355 356 355 353 349 346 343 341 340 344 350 351 347 339 332 333 342 11 52 68 73 76 76 77 77 77 78 81 86 94 109 131 156 173 184 191 196 199 201 203 204 204 204 204 203
340 342 344 347 349 351 353 354 354 353 353 353 352 352 351 350 350 349 349 349 349 350 350 351 352 354 356 357 357 355 354 353 352 350 348 348 349 351 353 353 352 350 347 343 338 333 331 331 329 331 344 2 1 353 340 337 343 3 69 81 83 84 84 83 82 82 83 85 88 94 103 115 133 152 169 182 190 195 199 201 203 204 205 205 205 204
345 346 348 351 353 356 357 358 357 356 356 356 356 356 355 354 353 352 353 353 354 354 355 355 357 359 1 2 1 0 358 357 355 352 349 348 349 351 353 352 349 346 344 340 334 326 319 317 317 323 347 11 8 355 343 343 352 45 94 93 92 92 90 88 87 87 90 96 104 114 123 132 143 156 170 182 189 194 198 201 203 205 205 205 205 204
349 350 352 354 356 358 359 359 358 358 359 0 1 1 360 359 357 356 355 356 356 357 357 358 359 0 2 3 4 3 1 359 356 354 351 349 348 349 349 347 345 343 342 342 339 330 318 310 311 324 7 22 12 357 344 351 10 84 103 101 100 98 95 91 89 90 96 110 127 139 145 151 157 165 174 183 189 194 199 202 204 206 206 206 205 204
352 353 355 357 358 359 359 360 0 1 2 4 4 5 4 2 1 359 358 358 358 358 358 358 358 359 360 1 2 3 2 0 358 355 352 350 350 349 348 346 345 344 345 348 350 349 344 338 342 9 41 36 20 3 352 5 51 102 110 109 106 102 97 93 89 89 97 122 158 171 169 170 171 175 180 186 191 196 201 203 206 207 208 207 206 205
355 356 357 358 359 0 1 2 3 3 4 5 6 6 5 4 3 2 1 0 0 360 359 358 357 357 356 357 358 360 0 360 358 356 354 353 352 352 352 352 352 353 354 357 1 8 15 25 43 61 66 53 37 22 14 37 87 113 117 115 112 107 100 94 88 85 87 144 225 215 198 189 185 184 184 187 191 196 201 204 206 207 207 207 207 205
358 358 359 360 0 1 2 4 5 5 6 6 6 5 4 4 3 2 2 1 0 359 359 358 357 356 356 355 355 356 357 357 356 355 354 354 355 358 1 5 7 7 7 11 18 29 41 53 65 74 75 67 57 56 74 89 108 120 123 122 117 109 99 90 82 75 57 299 269 234 194 180 176 176 178 180 184 190 196 200 203 204 205 206 206 205
360 0 0 1 2 2 3 4 5 5 6 5 5 4 3 3 2 2 1 360 358 358 358 358 359 359 359 357 357 356 356 355 354 353 352 352 355 0 8 15 17 18 18 24 39 52 60 66 72 78 79 79 84 99 106 113 119 124 127 127 122 112 99 89 80 70 34 281 211 146 141 142 148 160 171 176 180 185 190 194 198 200 202 203 204 204
2 2 3 3 3 3 4 4 4 4 5 5 4 2 2 2 2 1 360 358 357 357 358 1 3 3 3 3 2 1 359 358 356 354 352 351 353 357 6 15 19 21 21 29 50 68 74 75 77 80 86 97 112 121 121 123 126 129 131 131 126 117 107 101 98 102 142 150 131 125 126 132 144 160 173 180 183 185 187 189 191 193 195 198 200 201
5 6 6 6 5 5 4 4 3 3 4 4 3 2 1 1 0 360 358 358 358 359 2 6 8 9 9 9 8 7 5 2 0 358 356 354 353 354 1 11 18 20 22 31 53 75 82 82 82 84 92 110 125 128 128 129 130 133 135 136 132 127 125 127 137 150 149 130 120 119 124 135 148 164 177 183 184 184 184 183 183 184 186 188 191 194
8 9 9 8 8 6 5 4 3 2 3 3 2 1 1 0 360 359 359 360 2 5 9 12 13 13 13 13 12 11 9 8 5 3 1 359 357 357 0 9 17 20 23 34 55 75 83 86 86 90 99 116 126 128 130 132 133 135 138 139 139 139 141 146 147 140 128 117 112 113 119 131 145 161 174 178 180 179 177 177 176 176 177 178 181 184
10 10 11 10 9 8 6 5 4 4 3 2 1 1 1 1 360 360 1 4 9 13 16 17 17 16 15 14 13 13 13 12 10 8 6 4 3 4 7 15 22 25 28 38 54 71 81 88 93 98 105 116 124 128 131 133 134 135 137 139 141 143 144 140 132 123 116 111 108 109 113 121 133 149 161 166 168 169 168 169 169 170 170 171 173 175
10 10 11 11 10 9 8 7 6 5 5 4 3 3 3 3 3 3 6 11 17 21 23 22 20 18 16 15 15 15 15 15 13 11 9 9 10 13 19 28 34 36 38 43 52 63 75 85 95 103 108 114 123 129 131 132 132 131 131 132 133 132 129 123 119 115 112 109 108 110 113 118 126 137 147 152 155 157 159 161 163 164 165 166 167 168
9 9 10 10 10 10 9 8 8 7 7 7 6 6 6 5 5 7 11 17 23 26 27 25 22 19 17 16 17 18 18 18 17 16 14 14 17 22 30 41 49 52 51 49 52 59 70 83 95 102 109 115 121 126 129 130 129 128 127 126 124 121 119 118 117 114 112 109 110 111 114 117 122 130 137 143 147 150 152 155 156 157 158 159 160 162
6 7 8 9 9 9 9 8 8 8 8 8 8 8 8 7 7 9 14 20 26 28 28 26 23 20 18 18 19 20 21 21 20 20 19 21 24 31 41 53 60 63 61 57 55 61 74 89 99 106 112 117 121 123 125 126 126 125 123 122 119 117 117 118 117 115 112 110 110 111 112 116 121 127 133 139 143 146 148 149 150 151 152 153 154 155
Height
5404 5401 5397 5394 5391 5388 5385 5382 5379 5377 5374 5370 5367 5365 5362 5359 5355 5351 5348 5345 5341 5336 5332 5329 5326 5324 5322 5320 5318 5316 5314 5311 5309 5307 5305 5303 5302 5300 5298 5297 5295 5294 5292 5291 5290 5289 5288 5288 5288 5288 5288 5289 5289 5289 5289 5290 5290 5290 5291 5291 5292 5293 5294 5296 5298 5300 5302 5305 5307 5310 5311 5313 5314 5316 5318 5320 5322 5325 5328 5331 5335 5339 5343 5347 5351 5356
5396 5392 5389 5386 5384 5381 5378 5374 5372 5370 5366 5363 5360 5357 5354 5351 5347 5344 5341 5338 5334 5330 5326 5322 5319 5317 5315 5313 5312 5310 5307 5305 5303 5301 5299 5297 5296 5294 5292 5290 5289 5287 5286 5284 5283 5282 5281 5281 5281 5281 5282 5282 5282 5283 5283 5283 5283 5284 5284 5285 5285 5286 5287 5289 5291 5293 5296 5298 5300 5301 5302 5304 5306 5308 5310 5312 5314 5317 5319 5322 5326 5330 5335 5339 5343 5347
5388 5385 5381 5378 5376 5374 5371 5367 5364 5362 5359 5356 5353 5350 5346 5343 5339 5336 5333 5330 5327 5323 5320 5316 5313 5310 5308 5307 5306 5304 5301 5299 5297 5295 5293 5291 5290 5288 5286 5284 5282 5281 5279 5278 5276 5275 5275 5274 5275 5275 5275 5276 5276 5276 5276 5277 5277 5277 5278 5278 5278 5279 5280 5282 5284 5286 5288 5289 5290 5291 5293 5295 5297 5300 5302 5304 5306 5309 5312 5315 5318 5322 5326 5331 5335 5339
5380 5377 5374 5371 5369 5366 5364 5361 5358 5354 5351 5348 5345 5342 5338 5335 5331 5328 5325 5323 5320 5316 5313 5310 5307 5304 5302 5301 5299 5297 5295 5293 5291 5289 5287 5285 5283 5282 5280 5278 5276 5275 5273 5271 5270 5269 5269 5268 5268 5268 5268 5269 5269 5269 5270 5270 5270 5271 5271 5271 5272 5273 5274 5275 5277 5278 5279 5280 5281 5283 5285 5288 5290 5292 5295 5298 5300 5303 5306 5308 5311 5315 5318 5322 5326 5330
5373 5370 5367 5364 5361 5359 5356 5354 5351 5347 5344 5340 5337 5334 5331 5327 5323 5320 5317 5315 5312 5309 5306 5304 5301 5299 5296 5294 5293 5291 5289 5287 5285 5283 5281 5279 5277 5276 5274 5272 5270 5269 5267 5266 5265 5264 5263 5263 5263 5262 5262 5262 5263 5263 5263 5263 5263 5264 5265 5265 5266 5266 5267 5269 5270 5270 5271 5272 5274 5276 5278 5281 5284 5286 5288 5291 5294 5297 5299 5302 5305 5308 5311 5314 5318 5321
5366 5364 5361 5357 5354 5351 5348 5346 5343 5340 5336 5332 5329 5326 5323 5320 5316 5313 5310 5308 5305 5303 5300 5298 5296 5293 5291 5288 5286 5285 5283 5281 5279 5277 5275 5273 5271 5269 5268 5266 5264 5263 5261 5260 5259 5258 5258 5257 5257 5257 5256 5256 5256 5256 5256 5256 5257 5257 5258 5259 5260 5261 5261 5262 5263 5263 5264 5265 5267 5269 5271 5274 5276 5278 5281 5284 5287 5290 5293 5296 5298 5301 5304 5307 5311 5314
5358 5356 5354 5351 5347 5344 5341 5339 5336 5332 5329 5325 5321 5318 5316 5312 5309 5306 5303 5301 5299 5296 5294 5292 5290 5288 5286 5283 5280 5278 5276 5274 5272 5271 5268 5266 5265 5263 5261 5260 5258 5257 5256 5255 5254 5253 5252 5252 5251 5251 5251 5251 5251 5251 5250 5250 5250 5251 5252 5252 5253 5254 5255 5256 5256 5256 5257 5259 5260 5262 5264 5266 5268 5271 5274 5277 5280 5283 5286 5289 5292 5295 5298 5301 5304 5308
5351 5349 5347 5345 5341 5338 5334 5332 5330 5326 5322 5317 5313 5310 5307 5305 5303 5300 5297 5295 5293 5290 5288 5286 5284 5283 5281 5277 5274 5272 5269 5267 5266 5264 5262 5261 5259 5257 5256 5254 5253 5252 5251 5249 5248 5247 5246 5246 5246 5246 5246 5245 5245 5245 5245 5244 5244 5245 5246 5246 5247 5248 5248 5249 5249 5250 5251 5252 5253 5255 5257 5259 5262 5265 5268 5271 5273 5276 5279 5282 5285 5288 5291 5294 5298 5301
5345 5342 5340 5338 5336 5332 5328 5325 5322 5320 5316 5311 5306 5303 5300 5297 5295 5294 5292 5290 5288 5285 5282 5280 5278 5277 5275 5272 5269 5266 5263 5261 5259 5257 5256 5254 5253 5251 5250 5249 5248 5246 5245 5244 5243 5242 5241 5240 5240 5240 5240 5240 5240 5239 5239 5238 5238 5239 5239 5240 5241 5241 5241 5242 5243 5243 5245 5246 5247 5249 5251 5253 5256 5258 5261 5263 5266 5269 5271 5274 5277 5280 5284 5287 5291 5295
5340 5337 5334 5331 5329 5327 5322 5318 5314 5312 5309 5305 5301 5298 5295 5291 5288 5286 5286 5285 5284 5281 5278 5275 5272 5271 5269 5266 5263 5260 5257 5255 5253 5252 5250 5248 5247 5246 5244 5243 5242 5241 5240 5239 5237 5236 5235 5235 5234 5234 5234 5234 5234 5233 5233 5233 5233 5233 5233 5234 5234 5235 5235 5236 5236 5236 5237 5239 5241 5243 5245 5247 5249 5251 5253 5255 5258 5261 5264 5266 5270 5273 5276 5280 5284 5288
5334 5331 5329 5326 5323 5319 5316 5312 5308 5305 5302 5298 5295 5292 5290 5287 5283 5280 5278 5278 5278 5277 5274 5271 5268 5265 5262 5260 5257 5255 5251 5249 5248 5246 5246 5244 5242 5241 5239 5238 5236 5236 5234 5233 5232 5231 5230 5229 5229 5228 5229 5228 5228 5228 5227 5227 5227 5227 5227 5227 5228 5228 5229 5229 5229 5230 5231 5232 5234 5236 5238 5239 5241 5242 5245 5247 5250 5253 5256 5259 5262 5266 5270 5273 5276 5280
5329 5326 5323 5319 5316 5312 5309 5305 5302 5299 5296 5292 5289 5286 5284 5282 5280 5276 5273 5271 5271 5270 5268 5266 5263 5261 5257 5253 5251 5248 5246 5244 5242 5241 5241 5240 5238 5236 5234 5232 5231 5230 5229 5228 5227 5226 5225 5224 5223 5223 5223 5223 5223 5222 5222 5221 5221 5221 5221 5222 5222 5222 5223 5223 5223 5224 5224 5226 5227 5229 5230 5231 5232 5234 5237 5239 5242 5245 5247 5251 5254 5258 5262 5265 5269 5273
5324 5321 5316 5312 5309 5306 5302 5299 5295 5292 5290 5287 5284 5280 5278 5277 5275 5272 5268 5266 5265 5263 5261 5259 5257 5256 5252 5249 5245 5242 5240 5238 5238 5237 5236 5235 5233 5231 5229 5228 5227 5226 5225 5223 5222 5221 5221 5220 5219 5219 5219 5218 5218 5217 5217 5216 5216 5216 5216 5216 5217 5217 5217 5217 5217 5218 5218 5219 5220 5221 5222 5223 5225 5227 5230 5232 5234 5237 5240 5242 5246 5250 5254 5258 5263 5268
5317 5313 5310 5306 5304 5301 5297 5293 5290 5287 5285 5282 5279 5276 5273 5271 5269 5267 5264 5261 5259 5258 5255 5253 5251 5250 5247 5244 5241 5237 5235 5234 5234 5233 5233 5231 5229 5227 5224 5223 5222 5222 5221 5220 5219 5218 5217 5216 5215 5215 5215 5214 5213 5213 5212 5212 5212 5212 5212 5212 5212 5212 5212 5212 5212 5212 5212 5213 5214 5214 5216 5217 5219 5221 5223 5225 5227 5230 5232 5236 5239 5243 5247 5252 5257 5262
5311 5307 5304 5301 5298 5296 5292 5289 5285 5282 5280 5277 5274 5271 5269 5266 5264 5261 5258 5256 5254 5252 5250 5248 5246 5245 5243 5240 5236 5234 5232 5231 5230 5230 5230 5229 5226 5223 5220 5219 5219 5218 5217 5216 5215 5214 5213 5212 5212 5211 5211 5210 5209 5208 5208 5208 5208 5207 5207 5207 5207 5207 5207 5207 5206 5206 5206 5207 5208 5209 5210 5211 5213 5215 5216 5218 5220 5223 5226 5229 5233 5237 5242 5247 5253 5258
5306 5302 5299 5296 5293 5291 5288 5285 5281 5278 5275 5272 5270 5267 5264 5262 5259 5257 5254 5251 5249 5247 5245 5243 5242 5241 5239 5237 5234 5231 5228 5227 5227 5227 5227 5226 5224 5220 5217 5215 5215 5215 5214 5213 5212 5211 5210 5209 5209 5208 5207 5206 5206 5205 5204 5204 5204 5203 5203 5203 5203 5203 5203 5202 5202 5202 5202 5202 5203 5203 5204 5205 5206 5208 5210 5212 5214 5217 5220 5223 5227 5232 5237 5242 5248 5253
5301 5298 5294 5291 5288 5286 5284 5281 5277 5274 5271 5268 5266 5263 5261 5258 5255 5252 5250 5247 5244 5242 5241 5239 5238 5237 5236 5235 5233 5230 5226 5225 5225 5225 5225 5223 5221 5218 5214 5212 5212 5212 5211 5211 5209 5208 5207 5206 5206 5205 5204 5203 5203 5202 5201 5201 5201 5200 5200 5200 5200 5199 5199 5199 5198 5198 5198 5198 5198 5198 5199 5200 5201 5202 5204 5206 5208 5211 5214 5217 5221 5226 5231 5237 5242 5248
5297 5294 5290 5286 5283 5281 5279 5276 5273 5270 5267 5264 5262 5259 5257 5255 5252 5249 5246 5243 5241 5239 5238 5236 5236 5235 5234 5233 5231 5229 5225 5223 5223 5223 5222 5221 5218 5215 5212 5210 5209 5209 5209 5208 5206 5205 5204 5204 5203 5202 5201 5201 5200 5199 5199 5198 5198 5197 5197 5197 5196 5196 5196 5196 5196 5196 5195 5195 5194 5194 5194 5195 5196 5197 5199 5201 5203 5206 5208 5212 5216 5220 5225 5231 5236 5243
5292 5290 5286 5282 5279 5277 5275 5273 5270 5266 5263 5261 5258 5256 5254 5252 5249 5246 5244 5241 5239 5237 5236 5235 5234 5233 5231 5231 5229 5227 5224 5222 5221 5221 5220 5218 5216 5214 5211 5209 5207 5207 5206 5206 5204 5203 5202 5201 5201 5200 5199 5199 5198 5197 5197 5196 5196 5195 5194 5194 5193 5193 5193 5193 5193 5193 5193 5192 5191 5191 5190 5190 5191 5192 5194 5196 5197 5200 5203 5206 5210 5214 5220 5226 5232 5238
5287 5286 5283 5279 5275 5272 5271 5269 5266 5263 5260 5257 5255 5253 5251 5249 5247 5245 5242 5240 5238 5237 5236 5234 5232 5231 5230 5228 5227 5225 5223 5221 5219 5218 5218 5216 5215 5212 5209 5207 5206 5205 5204 5203 5202 5201 5200 5200 5199 5198 5197 5197 5197 5196 5196 5195 5194 5194 5193 5192 5191 5191 5190 5189 5189 5190 5190 5190 5189 5187 5186 5186 5187 5188 5189 5191 5192 5195 5197 5201 5206 5210 5216 5221 5228 5234
5283 5281 5279 5276 5272 5269 5267 5266 5264 5261 5258 5256 5253 5251 5249 5247 5246 5244 5242 5240 5238 5236 5234 5232 5231 5230 5228 5227 5226 5224 5221 5219 5217 5216 5216 5215 5213 5211 5208 5206 5204 5203 5202 5201 5201 5200 5199 5198 5197 5196 5196 5196 5196 5195 5194 5194 5194 5194 5193 5193 5192 5191 5189 5188 5188 5187 5187 5186 5185 5184 5183 5183 5183 5184 5185 5186 5188 5190 5193 5197 5201 5206 5212 5218 5224 5231
5279 5277 5275 5272 5270 5266 5264 5263 5261 5259 5256 5254 5252 5250 5248 5246 5245 5243 5241 5239 5237 5235 5233 5231 5230 5228 5227 5225 5224 5222 5220 5217 5215 5214 5213 5212 5211 5210 5207 5205 5203 5202 5201 5200 5199 5198 5197 5196 5196 5195 5195 5194 5194 5193 5193 5192 5192 5192 5192 5192 5191 5191 5190 5188 5187 5186 5185 5183 5182 5181 5180 5179 5179 5180 5181 5182 5184 5187 5190 5194 5199 5205 5210 5216 5222 5228
5276 5274 5271 5269 5267 5265 5263 5261 5259 5257 5255 5253 5251 5249 5246 5245 5243 5241 5239 5237 5236 5234 5232 5231 5229 5228 5226 5224 5222 5221 5219 5216 5214 5212 5211 5210 5209 5208 5206 5204 5202 5201 5200 5199 5197 5196 5195 5195 5194 5193 5193 5192 5192 5192 5191 5191 5191 5190 5190 5189 5189 5188 5188 5187 5186 5185 5183 5181 5180 5179 5177 5176 5176 5177 5178 5180 5182 5185 5188 5193 5198 5203 5208 5214 5220 5226
5274 5271 5269 5267 5265 5263 5261 5258 5256 5254 5252 5251 5249 5247 5245 5243 5241 5239 5238 5236 5234 5233 5231 5230 5228 5226 5225 5223 5221 5219 5217 5215 5212 5210 5209 5208 5207 5206 5205 5203 5201 5200 5199 5197 5196 5195 5194 5193 5192 5192 5191 5191 5191 5190 5190 5189 5189 5188 5188 5187 5187 5186 5186 5185 5184 5182 5181 5180 5178 5176 5175 5174 5174 5174 5176 5177 5180 5183 5187 5191 5196 5201 5207 5212 5218 5224
5271 5269 5267 5265 5262 5260 5258 5256 5254 5252 5250 5248 5246 5245 5243 5241 5240 5238 5236 5234 5232 5231 5230 5228 5227 5225 5223 5222 5220 5218 5216 5214 5211 5209 5207 5206 5206 5205 5203 5201 5200 5199 5198 5197 5195 5194 5193 5192 5191 5191 5190 5190 5189 5189 5188 5188 5187 5187 5186 5186 5185 5185 5184 5183 5182 5181 5179 5177 5176 5174 5173 5172 5172 5172 5174 5176 5178 5182 5186 5190 5195 5200 5206 5211 5217 5223
5269 5266 5264 5262 5260 5258 5256 5254 5252 5250 5248 5246 5244 5242 5241 5239 5238 5236 5235 5233 5231 5229 5228 5227 5226 5224 5222 5220 5218 5217 5216 5213 5211 5208 5206 5206 5205 5203 5202 5200 5198 5197 5197 5196 5195 5193 5191 5191 5190 5190 5189 5188 5188 5187 5187 5186 5186 5185 5184 5183 5182 5182 5181 5181 5180 5179 5177 5176 5174 5172 5171 5170 5170 5171 5172 5174 5177 5180 5184 5189 5194 5199 5205 5211 5216 5223
5267 5265 5263 5261 5259 5257 5255 5253 5251 5248 5246 5244 5241 5240 5238 5237 5236 5234 5233 5231 5229 5227 5226 5225 5224 5222 5221 5219 5217 5216 5214 5212 5210 5207 5205 5204 5203 5202 5201 5199 5197 5196 5195 5194 5193 5191 5190 5189 5189 5188 5188 5187 5186 5186 5186 5185 5184 5183 5182 5181 5180 5180 5181 5180 5179 5177 5175 5173 5172 5171 5170 5169 5169 5170 5171 5174 5176 5180 5184 5188 5193 5199 5205 5210 5216 5222
5265 5263 5261 5259 5257 5255 5253 5251 5249 5246 5244 5242 5240 5237 5236 5234 5233 5231 5230 5229 5227 5225 5224 5223 5221 5220 5219 5218 5216 5214 5212 5210 5208 5206 5204 5203 5202 5201 5200 5198 5196 5195 5194 5193 5191 5191 5189 5188 5188 5187 5187 5186 5186 5185 5184 5183 5182 5181 5181 5180 5181 5181 5181 5179 5177 5175 5173 5171 5170 5169 5169 5169 5169 5170 5172 5174 5177 5180 5184 5188 5193 5199 5204 5210 5216 5222
5264 5262 5260 5257 5255 5253 5251 5249 5247 5245 5242 5240 5238 5236 5233 5232 5230 5228 5227 5226 5225 5223 5222 5221 5219 5218 5217 5216 5215 5213 5211 5208 5206 5204 5203 5202 5201 5200 5198 5197 5195 5194 5192 5191 5190 5189 5188 5187 5187 5186 5186 5186 5185 5184 5183 5182 5181 5181 5181 5181 5182 5181 5179 5177 5175 5173 5171 5170 5169 5169 5169 5169 5170 5171 5172 5175 5178 5181 5185 5189 5194 5199 5204 5210 5216 5222
5263 5261 5259 5256 5254 5252 5250 5247 5245 5243 5241 5238 5236 5234 5231 5230 5228 5226 5225 5223 5222 5221 5220 5218 5217 5216 5215 5214 5213 5212 5210 5207 5205 5203 5201 5201 5200 5198 5197 5196 5194 5192 5191 5190 5189 5188 5187 5187 5186 5186 5186 5185 5184 5183 5182 5182 5181 5182 5182 5183 5182 5179 5177 5175 5173 5171 5170 5169 5169 5168 5169 5169 5170 5172 5174 5176 5179 5183 5186 5191 5195 5200 5205 5211 5216 5222
5262 5260 5258 5256 5253 5251 5248 5246 5244 5241 5239 5237 5234 5232 5230 5228 5226 5224 5223 5221 5220 5219 5218 5217 5216 5214 5213 5212 5211 5210 5209 5206 5204 5202 5201 5200 5199 5197 5196 5194 5192 5191 5190 5189 5189 5188 5187 5186 5186 5185 5185 5184 5183 5183 5182 5182 5183 5184 5184 5182 5180 5177 5175 5173 5171 5170 5170 5169 5169 5169 5169 5170 5172 5174 5176 5179 5181 5185 5189 5193 5197 5202 5207 5212 5217 5223
5261 5259 5256 5254 5251 5249 5246 5244 5242 5240 5237 5235 5233 5231 5228 5226 5224 5222 5221 5220 5219 5217 5216 5215 5214 5213 5212 5211 5210 5208 5207 5205 5203 5201 5200 5199 5197 5196 5194 5192 5191 5190 5188 5188 5188 5187 5187 5186 5186 5185 5184 5183 5183 5183 5183 5184 5185 5185 5183 5181 5178 5176 5174 5172 5171 5170 5169 5169 5169 5170 5171 5172 5174 5176 5178 5181 5185 5188 5191 5196 5200 5205 5209 5214 5219 5223
5259 5256 5254 5252 5250 5247 5245 5242 5240 5237 5235 5233 5231 5229 5227 5225 5223 5222 5220 5219 5218 5217 5216 5214 5213 5212 5211 5210 5208 5207 5205 5204 5202 5201 5200 5199 5197 5195 5193 5192 5191 5189 5188 5187 5187 5186 5186 5186 5185 5185 5184 5184 5184 5184 5185 5185 5185 5184 5181 5179 5177 5175 5173 5172 5171 5171 5170 5170 5171 5172 5173 5175 5176 5179 5181 5184 5187 5191 5195 5198 5202 5207 5211 5216 5220 5224
5257 5255 5252 5250 5247 5245 5242 5240 5238 5236 5234 5232 5230 5228 5226 5224 5223 5221 5220 5218 5217 5216 5215 5213 5212 5211 5210 5209 5208 5206 5205 5203 5202 5200 5199 5198 5196 5195 5193 5192 5191 5189 5188 5187 5187 5186 5186 5186 5186 5185 5185 5185 5185 5185 5185 5186 5185 5183 5180 5178 5177 5175 5174 5173 5172 5172 5172 5172 5173 5174 5175 5177 5179 5181 5184 5187 5190 5193 5197 5201 5204 5208 5213 5217 5221 5224
5255 5252 5250 5248 5246 5243 5241 5239 5237 5235 5233 5231 5229 5227 5226 5224 5222 5221 5219 5218 5216 5215 5214 5213 5211 5210 5209 5208 5207 5206 5204 5203 5201 5199 5198 5197 5196 5195 5193 5192 5191 5190 5189 5188 5187 5187 5187 5186 5186 5186 5186 5185 5185 5185 5186 5186 5184 5181 5180 5178 5177 5176 5175 5175 5174 5174 5174 5174 5175 5176 5177 5179 5181 5184 5186 5189 5192 5195 5198 5202 5205 5209 5212 5216 5220 5223
5252 5250 5248 5246 5244 5242 5240 5238 5236 5235 5233 5231 5229 5227 5225 5224 5222 5221 5219 5218 5216 5215 5213 5212 5211 5210 5209 5208 5206 5205 5204 5202 5201 5199 5197 5197 5196 5195 5193 5192 5191 5190 5189 5188 5188 5188 5188 5187 5186 5186 5186 5186 5186 5186 5186 5185 5183 5181 5180 5179 5178 5178 5177 5176 5176 5176 5176 5177 5178 5179 5180 5182 5184 5186 5188 5191 5193 5196 5199 5202 5205 5208 5212 5215 5218 5222
5251 5249 5247 5245 5243 5241 5240 5238 5236 5234 5233 5231 5229 5227 5225 5224 5222 5221 5219 5218 5216 5215 5213 5212 5210 5209 5208 5207 5206 5205 5203 5201 5200 5198 5197 5196 5196 5195 5194 5192 5191 5190 5189 5189 5188 5188 5188 5188 5187 5187 5186 5186 5187 5187 5186 5184 5183 5181 5181 5180 5180 5179 5179 5178 5178 5179 5180 5181 5181 5183 5184 5185 5186 5188 5189 5191 5193 5196 5198 5201 5204 5207 5211 5214 5217 5220
5249 5247 5246 5244 5243 5241 5239 5238 5236 5234 5233 5231 5229 5227 5226 5224 5222 5221 5219 5218 5216 5215 5214 5212 5211 5209 5208 5207 5206 5204 5202 5201 5200 5198 5197 5196 5196 5195 5194 5192 5191 5190 5189 5189 5188 5188 5188 5188 5188 5188 5187 5187 5187 5187 5186 5184 5183 5182 5181 5181 5181 5181 5181 5181 5181 5182 5183 5184 5185 5186 5186 5187 5188 5189 5190 5191 5193 5195 5198 5201 5203 5206 5209 5212 5215 5219
5248 5247 5245 5244 5242 5241 5239 5237 5236 5234 5232 5231 5229 5227 5226 5224 5222 5221 5220 5218 5217 5215 5214 5212 5211 5209 5208 5207 5206 5204 5203 5201 5200 5199 5197 5196 5196 5195 5194 5192 5191 5190 5190 5189 5189 5189 5189 5189 5188 5188 5188 5188 5187 5187 5186 5184 5183 5182 5182 5183 5183 5183 5183 5184 5184 5185 5186 5186 5187 5187 5187 5188 5189 5190 5191 5192 5193 5195 5197 5200 5202 5205 5207 5211 5214 5217
5248 5246 5245 5243 5241 5240 5239 5237 5236 5234 5232 5231 5229 5228 5226 5225 5223 5221 5220 5218 5217 5216 5214 5213 5211 5210 5208 5207 5206 5205 5203 5202 5200 5199 5198 5197 5196 5195 5194 5193 5192 5191 5191 5190 5190 5189 5189 5188 5188 5188 5188 5188 5188 5187 5186 5185 5184 5183 5184 5184 5184 5184 5185 5186 5186 5187 5187 5188 5188 5188 5188 5188 5189 5190 5191 5192 5194 5196 5197 5200 5202 5204 5207 5210 5213 5216
5248 5246 5244 5243 5241 5240 5238 5237 5235 5234 5232 5231 5229 5228 5227 5226 5224 5223 5221 5219 5218 5216 5215 5213 5212 5210 5209 5207 5206 5205 5204 5202 5201 5200 5198 5197 5196 5195 5194 5194 5193 5192 5191 5191 5190 5189 5188 5188 5188 5188 5188 5188 5188 5188 5186 5185 5185 5185 5185 5186 5186 5186 5186 5187 5188 5189 5189 5189 5189 5189 5189 5189 5190 5190 5191 5192 5194 5196 5197 5200 5202 5204 5207 5210 5213 5216
5247 5246 5244 5242 5241 5240 5238 5236 5235 5234 5232 5231 5230 5229 5227 5226 5225 5223 5222 5221 5219 5217 5216 5214 5213 5211 5209 5208 5206 5205 5203 5202 5201 5200 5199 5198 5197 5196 5195 5194 5194 5193 5192 5191 5190 5189 5188 5188 5188 5188 5188 5188 5188 5188 5187 5186 5186 5186 5186 5187 5187 5187 5188 5189 5190 5191 5191 5190 5190 5190 5191 5191 5192 5192 5193 5194 5195 5197 5198 5200 5202 5204 5206 5209 5213 5216
5247 5245 5244 5242 5241 5239 5238 5236 5235 5234 5233 5231 5230 5229 5228 5226 5226 5224 5222 5221 5219 5218 5216 5215 5213 5211 5210 5208 5206 5205 5203 5202 5201 5200 5199 5198 5197 5196 5196 5195 5194 5193 5192 5191 5190 5189 5189 5188 5188 5188 5189 5189 5188 5188 5187 5187 5186 5187 5188 5188 5188 5188 5189 5190 5191 5192 5192 5191 5191 5191 5192 5193 5193 5194 5195 5196 5197 5198 5200 5201 5202 5203 5206 5208 5211 5215
5246 5245 5243 5242 5241 5239 5238 5236 5236 5234 5233 5232 5231 5229 5228 5227 5226 5224 5223 5221 5220 5218 5217 5216 5214 5212 5210 5208 5206 5205 5203 5202 5201 5200 5200 5199 5198 5197 5196 5195 5194 5193 5192 5191 5190 5190 5189 5189 5189 5189 5189 5189 5189 5188 5188 5187 5187 5188 5189 5189 5189 5190 5191 5192 5193 5193 5193 5192 5192 5193 5194 5195 5195 5196 5196 5197 5198 5199 5200 5201 5202 5203 5205 5207 5210 5213
5246 5245 5243 5242 5241 5239 5238 5237 5236 5235 5234 5232 5231 5230 5229 5227 5226 5225 5223 5221 5220 5219 5217 5216 5214 5212 5211 5209 5207 5206 5204 5203 5202 5201 5200 5199 5198 5197 5197 5196 5195 5194 5193 5192 5191 5190 5190 5190 5190 5190 5190 5189 5189 5189 5188 5188 5189 5189 5190 5190 5190 5191 5192 5193 5194 5194 5193 5193 5194 5195 5196 5197 5197 5197 5198 5198 5199 5200 5201 5202 5203 5204 5206 5208 5210 5213
5246 5245 5243 5242 5241 5240 5238 5237 5236 5235 5234 5233 5232 5231 5229 5228 5226 5225 5223 5222 5220 5219 5218 5216 5215 5213 5211 5210 5208 5207 5206 5204 5203 5201 5200 5199 5198 5197 5197 5196 5196 5195 5194 5192 5192 5191 5191 5191 5191 5191 5190 5190 5189 5189 5189 5190 5190 5190 5190 5191 5191 5192 5193 5193 5194 5194 5194 5195 5196 5197 5198 5198 5199 5199 5199 5199 5200 5201 5202 5203 5204 5206 5207 5209 5211 5213
5247 5245 5244 5242 5241 5240 5239 5238 5236 5236 5234 5233 5232 5231 5230 5228 5227 5225 5224 5222 5221 5219 5218 5216 5215 5213 5212 5211 5210 5208 5207 5205 5204 5202 5200 5199 5198 5198 5197 5197 5196 5196 5194 5193 5192 5192 5192 5192 5191 5191 5191 5191 5190 5190 5191 5191 5191 5191 5191 5191 5192 5192 5193 5193 5194 5194 5196 5197 5198 5199 5200 5200 5200 5200 5201 5201 5202 5202 5203 5205 5206 5207 5209 5211 5212 5214
5247 5246 5244 5243 5242 5241 5239 5238 5237 5236 5235 5233 5232 5231 5230 5228 5227 5226 5224 5223 5221 5220 5218 5217 5216 5214 5213 5212 5211 5210 5208 5206 5205 5203 5201 5200 5199 5198 5197 5197 5197 5196 5196 5195 5194 5193 5193 5193 5192 5192 5192 5191 5191 5191 5191 5192 5192 5192 5192 5193 5193 5193 5194 5195 5196 5196 5198 5199 5200 5201 5201 5202 5202 5202 5203 5203 5204 5204 5205 5206 5208 5209 5211 5212 5214 5216
5247 5246 5245 5243 5242 5241 5240 5239 5238 5236 5235 5234 5232 5231 5230 5229 5228 5226 5225 5223 5222 5221 5219 5218 5217 5216 5215 5213 5212 5211 5209 5207 5206 5204 5202 5200 5199 5198 5198 5198 5198 5197 5197 5196 5195 5195 5194 5194 5193 5193 5193 5193 5193 5193 5193 5193 5193 5194 5194 5194 5195 5195 5196 5197 5198 5199 5199 5200 5201 5202 5203 5204 5204 5205 5205 5206 5206 5206 5207 5208 5210 5211 5213 5214 5216 5218
5247 5246 5245 5244 5242 5241 5240 5239 5238 5237 5236 5234 5233 5232 5231 5229 5228 5227 5226 5224 5222 5221 5220 5219 5218 5217 5216 5215 5213 5212 5210 5208 5206 5205 5203 5201 5200 5199 5198 5198 5198 5198 5198 5197 5196 5196 5196 5195 5195 5195 5194 5194 5195 5195 5195 5195 5195 5195 5196 5196 5196 5197 5198 5199 5200 5201 5201 5202 5203 5204 5205 5206 5206 5207 5207 5208 5208 5209 5210 5211 5211 5213 5215 5216 5218 5220
5248 5246 5245 5244 5243 5242 5241 5240 5239 5237 5236 5235 5234 5232 5231 5230 5229 5228 5226 5225 5223 5222 5221 5220 5219 5219 5217 5216 5214 5213 5211 5209 5207 5206 5204 5202 5201 5200 5199 5199 5199 5199 5199 5198 5198 5197 5197 5196 5196 5196 5196 5196 5196 5196 5196 5197 5197 5197 5197 5198 5199 5200 5200 5201 5202 5202 5203 5204 5205 5206 5206 5207 5208 5209 5209 5210 5211 5211 5212 5213 5214 5215 5217 5218 5220 5221